| time (UTC) | temp C | wind direction | speed KPH | gust KPH | rain 1hr cm | rain 24hr cm | rain mn cm | humidity % | barometer mb |
| 20260506134526 | 12 | 241 | 0.0 | 0.0 | 0.00 | 0.00 | 0.00 | 89 | 1019.2 |
| 20260506133026 | 12 | 9 | 0.0 | 0.0 | 0.00 | 0.00 | 0.00 | 90 | 1019.2 |
| 20260506131528 | 12 | 9 | 0.0 | 0.0 | 0.00 | 0.00 | 0.00 | 90 | 1019.0 |
| 20260506130023 | 12 | 9 | 0.0 | 0.0 | 0.00 | 0.00 | 0.00 | 88 | 1019.0 |
| 20260506124526 | 13 | 9 | 0.0 | 0.0 | 0.00 | 0.00 | 0.00 | 88 | 1018.9 |
| 20260506123022 | 13 | 9 | 0.0 | 0.0 | 0.00 | 0.00 | 0.00 | 87 | 1018.8 |
| 20260506121520 | 12 | 9 | 0.0 | 0.0 | 0.00 | 0.00 | 0.00 | 89 | 1018.7 |
| 20260506120024 | 13 | 9 | 0.0 | 0.0 | 0.00 | 0.00 | 0.00 | 87 | 1018.7 |
| 20260506114517 | 13 | 9 | 0.0 | 3.2 | 0.00 | 0.00 | 0.00 | 87 | 1018.7 |
| 20260506113016 | 13 | 82 | 0.0 | 1.6 | 0.00 | 0.00 | 0.00 | 88 | 1018.7 |
| 20260506111515 | 13 | 82 | 0.0 | 0.0 | 0.00 | 0.00 | 0.00 | 88 | 1018.7 |
| 20260506110013 | 13 | 82 | 0.0 | 0.0 | 0.00 | 0.00 | 0.00 | 88 | 1018.5 |
| 20260506104511 | 13 | 82 | 0.0 | 0.0 | 0.00 | 0.00 | 0.00 | 88 | 1018.4 |
| 20260506103023 | 13 | 82 | 0.0 | 0.0 | 0.00 | 0.00 | 0.00 | 88 | 1018.3 |
| 20260506101508 | 13 | 82 | 0.0 | 0.0 | 0.00 | 0.00 | 0.00 | 88 | 1018.0 |
| 20260506100007 | 13 | 82 | 0.0 | 0.0 | 0.00 | 0.00 | 0.00 | 88 | 1017.9 |
| 20260506094515 | 13 | 82 | 0.0 | 0.0 | 0.00 | 0.00 | 0.00 | 89 | 1017.9 |
| 20260506093005 | 13 | 82 | 0.0 | 0.0 | 0.00 | 0.00 | 0.00 | 87 | 1017.9 |
| 20260506091505 | 13 | 82 | 0.0 | 0.0 | 0.00 | 0.00 | 0.00 | 87 | 1017.9 |
| 20260506090003 | 13 | 82 | 0.0 | 0.0 | 0.00 | 0.00 | 0.00 | 86 | 1018.1 |
| 20260506084502 | 13 | 82 | 0.0 | 0.0 | 0.00 | 0.00 | 0.00 | 85 | 1018.1 |
| 20260506083002 | 13 | 82 | 0.0 | 0.0 | 0.00 | 0.00 | 0.00 | 85 | 1018.1 |
| 20260506081605 | 13 | 82 | 0.0 | 1.6 | 0.00 | 0.00 | 0.00 | 84 | 1018.0 |
| 20260506073100 | 13 | 82 | 0.0 | 0.0 | 0.00 | 0.08 | 0.00 | 85 | 1017.7 |
| 20260506071555 | 13 | 82 | 0.0 | 0.0 | 0.00 | 0.08 | 0.00 | 84 | 1017.6 |
| 20260506070113 | 13 | 82 | 0.0 | 0.0 | 0.00 | 0.08 | 0.00 | 82 | 1017.5 |
| 20260506061548 | 13 | 69 | 0.0 | 0.0 | 0.00 | 0.20 | 0.08 | 82 | 1017.2 |
| 20260506044553 | 14 | 299 | 0.0 | 0.0 | 0.00 | 0.36 | 0.08 | 81 | 1016.6 |
| 20260506043040 | 15 | 336 | 0.0 | 3.2 | 0.00 | 0.36 | 0.08 | 79 | 1016.3 |
| 20260506041548 | 15 | 213 | 0.0 | 1.6 | 0.00 | 0.36 | 0.08 | 79 | 1016.0 |
| 20260506040042 | 15 | 213 | 0.0 | 0.0 | 0.00 | 0.36 | 0.08 | 80 | 1016.0 |
| 20260506034536 | 15 | 213 | 0.0 | 0.0 | 0.00 | 0.41 | 0.08 | 80 | 1015.7 |
| 20260506033034 | 15 | 213 | 0.0 | 1.6 | 0.00 | 0.41 | 0.08 | 79 | 1015.5 |
| 20260506031537 | 15 | 213 | 0.0 | 3.2 | 0.00 | 0.41 | 0.08 | 79 | 1015.0 |
| 20260506030032 | 15 | 215 | 0.0 | 3.2 | 0.00 | 0.41 | 0.08 | 79 | 1014.7 |
| 20260506024534 | 15 | 232 | 0.0 | 4.8 | 0.00 | 0.53 | 0.08 | 78 | 1014.7 |
| 20260506023032 | 16 | 178 | 0.0 | 4.8 | 0.00 | 0.53 | 0.08 | 77 | 1014.6 |
| 20260506021530 | 16 | 212 | 0.0 | 4.8 | 0.00 | 0.53 | 0.08 | 78 | 1014.5 |
| 20260506020029 | 16 | 194 | 0.0 | 3.2 | 0.00 | 0.53 | 0.08 | 80 | 1014.3 |
| 20260506014529 | 16 | 228 | 1.6 | 6.4 | 0.00 | 0.69 | 0.08 | 76 | 1014.1 |
| 20260506013028 | 16 | 204 | 1.6 | 6.4 | 0.00 | 0.69 | 0.08 | 76 | 1014.1 |
| 20260506011528 | 17 | 190 | 1.6 | 4.8 | 0.00 | 0.69 | 0.08 | 76 | 1013.9 |
| 20260506010028 | 17 | 13 | 0.0 | 6.4 | 0.00 | 0.69 | 0.08 | 76 | 1013.8 |
| 20260506004533 | 17 | 136 | 0.0 | 6.4 | 0.00 | 0.81 | 0.08 | 76 | 1014.0 |
| 20260506003026 | 18 | 27 | 3.2 | 9.7 | 0.00 | 0.81 | 0.08 | 73 | 1013.9 |
| 20260506001525 | 18 | 111 | 0.0 | 11.3 | 0.00 | 0.81 | 0.08 | 75 | 1013.6 |
| 20260506000024 | 18 | 240 | 0.0 | 3.2 | 0.00 | 0.81 | 0.08 | 73 | 1013.8 |
| 20260505234559 | 18 | 168 | 1.6 | 6.4 | 0.00 | 0.89 | 0.08 | 74 | 1013.8 |
| 20260505233024 | 18 | 61 | 0.0 | 4.8 | 0.00 | 0.89 | 0.08 | 74 | 1014.0 |
| 20260505231524 | 19 | 127 | 0.0 | 3.2 | 0.00 | 0.89 | 0.08 | 77 | 1013.9 |
| 20260505230023 | 19 | 336 | 1.6 | 4.8 | 0.00 | 0.89 | 0.08 | 74 | 1013.9 |
| 20260505224529 | 20 | 5 | 0.0 | 14.5 | 0.00 | 1.02 | 0.08 | 69 | 1014.0 |
| 20260505223018 | 20 | 309 | 0.0 | 9.7 | 0.00 | 1.02 | 0.08 | 71 | 1014.0 |
| 20260505221516 | 18 | 342 | 3.2 | 9.7 | 0.00 | 1.02 | 0.08 | 74 | 1014.2 |
| 20260505220014 | 18 | 343 | 3.2 | 9.7 | 0.00 | 1.02 | 0.08 | 74 | 1014.1 |
| 20260505214519 | 18 | 348 | 3.2 | 12.9 | 0.00 | 1.02 | 0.08 | 74 | 1014.4 |
| 20260505213013 | 18 | 338 | 3.2 | 9.7 | 0.00 | 1.02 | 0.08 | 75 | 1014.5 |
| 20260505211512 | 18 | 332 | 4.8 | 9.7 | 0.00 | 1.02 | 0.08 | 75 | 1014.6 |
| 20260505210012 | 18 | 355 | 3.2 | 12.9 | 0.00 | 1.02 | 0.08 | 75 | 1014.6 |
| 20260505204508 | 18 | 150 | 0.0 | 9.7 | 0.00 | 1.02 | 0.08 | 76 | 1014.6 |
| 20260505203005 | 18 | 314 | 0.0 | 6.4 | 0.00 | 1.02 | 0.08 | 77 | 1014.7 |
| 20260505201504 | 18 | 327 | 1.6 | 9.7 | 0.00 | 1.02 | 0.08 | 75 | 1014.7 |
| 20260505200107 | 17 | 5 | 3.2 | 8.0 | 0.00 | 1.02 | 0.08 | 76 | 1014.7 |
| 20260505194606 | 16 | 21 | 1.6 | 8.0 | 0.00 | 1.02 | 0.08 | 78 | 1014.7 |
| 20260505193057 | 16 | 325 | 0.0 | 8.0 | 0.00 | 1.02 | 0.08 | 81 | 1014.9 |
| 20260505191555 | 16 | 344 | 3.2 | 6.4 | 0.00 | 1.02 | 0.08 | 79 | 1014.9 |
| 20260505190054 | 15 | 348 | 3.2 | 9.7 | 0.00 | 1.02 | 0.08 | 80 | 1014.9 |
| 20260505184550 | 15 | 355 | 1.6 | 8.0 | 0.00 | 1.02 | 0.08 | 81 | 1014.9 |
| 20260505183052 | 15 | 336 | 1.6 | 6.4 | 0.00 | 1.02 | 0.08 | 82 | 1014.9 |
| 20260505181548 | 15 | 311 | 1.6 | 8.0 | 0.00 | 1.02 | 0.08 | 82 | 1014.8 |
| 20260505180045 | 15 | 355 | 0.0 | 4.8 | 0.00 | 1.02 | 0.08 | 84 | 1014.9 |
| 20260505174545 | 15 | 19 | 1.6 | 6.4 | 0.00 | 1.02 | 0.08 | 83 | 1014.6 |
| 20260505173044 | 14 | 15 | 3.2 | 6.4 | 0.00 | 1.02 | 0.08 | 83 | 1014.6 |
| 20260505171536 | 13 | 348 | 1.6 | 6.4 | 0.00 | 1.02 | 0.08 | 84 | 1014.6 |
| 20260505170035 | 13 | 5 | 0.0 | 4.8 | 0.00 | 1.02 | 0.08 | 87 | 1014.7 |
| 20260505164527 | 13 | 5 | 1.6 | 4.8 | 0.00 | 1.02 | 0.08 | 88 | 1014.9 |
| 20260505163023 | 12 | 5 | 0.0 | 3.2 | 0.00 | 1.02 | 0.08 | 89 | 1014.7 |
| 20260505161527 | 12 | 12 | 0.0 | 3.2 | 0.00 | 1.02 | 0.08 | 90 | 1014.6 |
| 20260505153017 | 12 | 9 | 0.0 | 3.2 | 0.00 | 1.02 | 0.08 | 92 | 1014.1 |
| 20260505151512 | 11 | 43 | 0.0 | 0.0 | 0.00 | 1.02 | 0.08 | 93 | 1014.2 |